Location: T�bingen+AIT
(48.5342°N, 9.0700°E)
Time: 15:06:17
(UTC+01:00)

Terra - Pass Details

Date: 14 September 2017
Orbit: 702 x 703 km, 98.2° (Epoch: 18 November)

Event Time Altitude Azimuth Distance (km) Brightness Sun altitude
Exits shadow 21:53:11 18° 52° (NE) 1,687 3.6 -21.8°
Drops below altitude 10° 21:56:00 10° 16° (NNE) 2,182 4.5 -22.2°
Sets 21:58:51 0° 359° (N) 3,106 5.6 -22.6°
